Le nostre stazioni meteo in Italia

Pubblicità
Il mio iltempo24.it
Aviano, Italia (16036): Temperatura & dewpoint: 13.05.2019 21:00:00 - 19.05.2019 21:00:00 (CEST)Aviano, Italia (16036): velocità del vento: 13.05.2019 21:00:00 - 19.05.2019 21:00:00 (CEST)Aviano, Italia (16036): direzione del vento: 13.05.2019 21:00:00 - 19.05.2019 21:00:00 (CEST)Aviano, Italia (16036): reduced air pressure: 13.05.2019 21:00:00 - 19.05.2019 21:00:00 (CEST)Aviano, Italia (16036): visibility: 13.05.2019 21:00:00 - 19.05.2019 21:00:00 (CEST)
Data & Tempo tt [°C] td [°C] ff [km/h] ff [kn] dd ppp [hPa] vv [km]
19.05.2019 21:00:00 - - - - - - -
19.05.2019 20:00:00 - - - - - - -
19.05.2019 19:00:00 - - - - - - -
19.05.2019 18:00:00 - - - - - - -
19.05.2019 17:00:00 - - - - - - -
19.05.2019 16:00:00 - - - - - - -
19.05.2019 15:00:00 - - - - - - -
19.05.2019 14:00:00 - - - - - - -
19.05.2019 13:00:00 - - - - - - -
19.05.2019 12:00:00 - - - - - - -
19.05.2019 11:00:00 - - - - - - -
19.05.2019 10:00:00 - - - - - - -
19.05.2019 09:00:00 - - - - - - -
19.05.2019 08:00:00 - - - - - - -
19.05.2019 07:00:00 - - - - - - -
19.05.2019 06:00:00 - - - - - - -
19.05.2019 05:00:00 - - - - - - -
19.05.2019 04:00:00 - - - - - - -
19.05.2019 03:00:00 - - - - - - -
19.05.2019 02:00:00 - - - - - - -
19.05.2019 01:00:00 - - - - - - -
19.05.2019 00:00:00 - - - - - - -
18.05.2019 23:00:00 - - - - - - -
18.05.2019 22:00:00 13,0 11,0 21 11 NNE - 10
18.05.2019 21:00:00 13,0 11,0 21 11 N - 10
18.05.2019 20:00:00 13,0 12,5 21 11 N 1007,9 6
18.05.2019 19:00:00 13,0 12,0 24 13 NNE - 8
18.05.2019 18:00:00 14,0 12,0 11 6 NE - 8
18.05.2019 17:00:00 15,0 11,6 13 7 ENE 1007,3 11
18.05.2019 16:00:00 15,0 10,0 22 12 NNE - 10
18.05.2019 15:00:00 15,0 13,0 16 9 NNE - 10
18.05.2019 14:00:00 15,0 13,4 11 6 O 1008,0 15
18.05.2019 13:00:00 17,0 10,0 5 3 NE - 10
18.05.2019 12:00:00 16,0 9,0 18 10 NNE - 10
18.05.2019 11:00:00 14,0 12,4 26 14 NNE 1008,2 20
18.05.2019 10:00:00 14,0 13,0 9 5 ENE - 10
18.05.2019 09:00:00 14,0 12,0 8 4 ESE - 10
18.05.2019 08:00:00 14,0 13,1 8 4 NE 1007,6 25
18.05.2019 07:00:00 13,0 12,0 5 3 ENE - 10
18.05.2019 06:00:00 13,0 11,0 4 2 SO - 10
18.05.2019 05:00:00 - - - - - - -
18.05.2019 04:00:00 - - - - - - -
18.05.2019 03:00:00 - - - - - - -
18.05.2019 02:00:00 - - - - - - -
18.05.2019 01:00:00 - - - - - - -
18.05.2019 00:00:00 - - - - - - -
17.05.2019 23:00:00 - - - - - - -
17.05.2019 22:00:00 15,0 8,0 4 2 N - 10
17.05.2019 21:00:00 15,0 8,0 8 4 SE - 10
17.05.2019 20:00:00 17,0 8,7 9 5 ESE 1009,2 20
17.05.2019 19:00:00 18,0 9,0 13 7 E - 10
17.05.2019 18:00:00 19,0 8,0 13 7 E - 10
17.05.2019 17:00:00 19,0 8,9 9 5 E 1009,5 20
17.05.2019 16:00:00 19,0 9,0 9 5 NE - 10
17.05.2019 15:00:00 19,0 10,0 5 3 ENE - 10
17.05.2019 14:00:00 18,4 9,5 8 4 S 1009,9 20
17.05.2019 13:00:00 18,0 10,0 5 3 SSE - 10
17.05.2019 12:00:00 17,0 10,0 8 4 NNE - 10
17.05.2019 11:00:00 16,4 9,8 9 5 SSE 1010,8 25
17.05.2019 10:00:00 15,0 9,0 4 2 ENE - 10
17.05.2019 09:00:00 - - - - - - -
17.05.2019 08:00:00 12,6 8,9 4 2 SE 1011,1 25
17.05.2019 07:00:00 12,0 9,0 5 3 ESE - 10
17.05.2019 06:00:00 13,0 10,0 2 1 SSE - 10
17.05.2019 05:00:00 - - - - - - -
17.05.2019 04:00:00 - - - - - - -
17.05.2019 03:00:00 - - - - - - -
17.05.2019 02:00:00 - - - - - - -
17.05.2019 01:00:00 - - - - - - -
17.05.2019 00:00:00 - - - - - - -
16.05.2019 23:00:00 - - - - - - -
16.05.2019 22:00:00 15,0 11,0 8 4 OSO - 10
16.05.2019 21:00:00 16,0 10,0 5 3 SSO - 10
16.05.2019 20:00:00 16,8 8,0 2 1 SSE 1010,6 25
16.05.2019 19:00:00 17,0 8,0 4 2 NNO - 10
16.05.2019 18:00:00 17,0 8,0 8 4 ONO - 10
16.05.2019 17:00:00 17,4 8,3 9 5 O 1010,4 25
16.05.2019 16:00:00 18,0 9,0 8 4 OSO - 10
16.05.2019 15:00:00 17,0 8,0 5 3 S - 10
16.05.2019 14:00:00 16,2 8,2 8 4 O 1012,0 25
16.05.2019 13:00:00 17,0 9,0 5 3 SE - 10
16.05.2019 12:00:00 16,0 9,0 9 5 SSO - 10
16.05.2019 11:00:00 15,2 9,6 5 3 SSO 1013,2 20
16.05.2019 10:00:00 14,0 9,0 4 2 SSO - 10
16.05.2019 09:00:00 13,0 8,0 4 2 E - 10
16.05.2019 08:00:00 12,0 7,1 2 1 E 1013,5 20
16.05.2019 07:00:00 10,0 9,0 4 2 N - 10
16.05.2019 06:00:00 9,0 9,0 4 2 NE - 10
16.05.2019 05:00:00 - - - - - - -
16.05.2019 04:00:00 - - - - - - -
16.05.2019 03:00:00 - - - - - - -
16.05.2019 02:00:00 - - - - - - -
16.05.2019 01:00:00 - - - - - - -
16.05.2019 00:00:00 - - - - - - -
15.05.2019 23:00:00 - - - - - - -
15.05.2019 22:00:00 12,0 10,0 2 1 E - 10
15.05.2019 21:00:00 13,0 10,0 8 4 ONO - 10
15.05.2019 20:00:00 13,0 10,0 8 4 OSO 1013,8 25
15.05.2019 19:00:00 14,0 11,0 4 2 SO - 10
15.05.2019 18:00:00 14,0 11,0 5 3 SO - 10
15.05.2019 17:00:00 13,8 11,1 9 5 OSO 1013,5 25
15.05.2019 16:00:00 14,0 11,0 5 3 SSO - 10
15.05.2019 15:00:00 12,0 10,0 4 2 SO - 10
15.05.2019 14:00:00 11,6 9,5 8 4 SO 1014,9 12
15.05.2019 13:00:00 10,0 9,0 8 4 SO - 10
15.05.2019 12:00:00 10,0 9,0 9 5 SO - 10
15.05.2019 11:00:00 10,2 8,6 4 2 S 1014,5 15
15.05.2019 10:00:00 9,0 8,0 4 2 E - 10
15.05.2019 09:00:00 9,0 8,0 8 4 E - 10
15.05.2019 08:00:00 9,0 7,4 8 4 E 1014,1 25
15.05.2019 07:00:00 9,0 7,0 4 2 ESE - 10
15.05.2019 06:00:00 9,0 7,0 2 1 SE - 10
15.05.2019 05:00:00 - - - - - - -
15.05.2019 04:00:00 - - - - - - -
15.05.2019 03:00:00 - - - - - - -
15.05.2019 02:00:00 - - - - - - -
15.05.2019 01:00:00 - - - - - - -
15.05.2019 00:00:00 - - - - - - -
14.05.2019 23:00:00 - - - - - - -
14.05.2019 22:00:00 10,0 6,0 8 4 S - 10
14.05.2019 21:00:00 11,0 6,0 8 4 S - 10
14.05.2019 20:00:00 12,0 6,5 11 6 S 1018,6 25
14.05.2019 19:00:00 12,0 6,0 18 10 SSO - 10
14.05.2019 18:00:00 13,0 7,0 18 10 SO - 10
14.05.2019 17:00:00 14,0 3,8 22 12 SO 1018,1 25
14.05.2019 16:00:00 15,0 8,0 21 11 OSO - 10
14.05.2019 15:00:00 14,0 7,0 22 12 OSO - 10
14.05.2019 14:00:00 15,2 5,4 13 7 SO 1018,5 25
14.05.2019 13:00:00 15,0 8,0 13 7 SO - 10
14.05.2019 12:00:00 15,0 9,0 16 9 SSO - 10
14.05.2019 11:00:00 15,4 9,5 18 10 SSO 1018,5 25
14.05.2019 10:00:00 15,0 11,0 11 6 SSO - 10
14.05.2019 09:00:00 15,0 10,0 8 4 O - 10
14.05.2019 08:00:00 13,2 8,9 5 3 S 1018,4 25
14.05.2019 07:00:00 13,0 9,0 4 2 S - 10
14.05.2019 06:00:00 12,0 9,0 13 7 SE - 10
14.05.2019 05:00:00 - - - - - - -
14.05.2019 04:00:00 - - - - - - -
14.05.2019 03:00:00 - - - - - - -
14.05.2019 02:00:00 - - - - - - -
14.05.2019 01:00:00 - - - - - - -
14.05.2019 00:00:00 - - - - - - -
13.05.2019 23:00:00 - - - - - - -
13.05.2019 22:00:00 15,0 12,0 4 2 NO - 10
13.05.2019 21:00:00 15,0 11,0 9 5 N - 10

tt = Temperatura
td = dewpoint
ff = velocità del vento
dd = direzione del vento
ppp = reduced air pressure
vv = visibility

Stazioni seguenti

WeatherPro
AMSI
MeteoEarth